Location: Brunsbüttel
(52.3892°N, 10.6138°E)
Time: 00:33:36
(UTC+00:00)

NOSS 3-1 (C) - Pass Details

Date: 19 May 2025
Orbit: 632 x 1571 km, 63.4° (Epoch: 12 June)

Event Time Altitude Azimuth Distance (km) Brightness Sun altitude
Rises 20:17:51 0° 197° (SSW) 2,980 5.7 -8.2°
Reaches altitude 10° 20:20:07 10° 189° (S) 2,131 4.9 -8.4°
Maximum altitude 20:24:33 39° 121° (ESE) 1,138 3.5 -8.8°
Drops below altitude 10° 20:29:50 10° 54° (NE) 2,551 5.7 -9.3°
Sets 20:32:46 0° 47° (NE) 3,649 6.6 -9.6°
